This is the latest recevied weather packets stored in our database for station/object KF4PPJ. If no packets are shown the sender has not sent any weather packets the latest 10 day(s).
| Time | Temp. | Humidity | Pressure | Rain* | Wind** | Luminosity | Snow |
|---|---|---|---|---|---|---|---|
| 1778119723 | 13.33° C | 78% | 1023 hPa | 0 mm | - | 35 W/m² | - |
| 1778119419 | 13.89° C | 77% | 1023.1 hPa | 0 mm | - | 28 W/m² | - |
| 1778119116 | 13.89° C | 78% | 1023.4 hPa | 0 mm | - | 25 W/m² | - |
| 1778118814 | 13.89° C | 77% | 1023.1 hPa | 0 mm | - | 29 W/m² | - |
| 1778118511 | 13.89° C | 77% | 1023.1 hPa | 0 mm | - | 40 W/m² | - |
| 1778118207 | 13.89° C | 77% | 1023.1 hPa | 0 mm | - | 42 W/m² | - |
| 1778117904 | 13.89° C | 77% | 1023.1 hPa | 0 mm | - | 40 W/m² | - |
| 1778117601 | 13.33° C | 79% | 1023.1 hPa | 0 mm | - | 47 W/m² | - |
| 1778117299 | 13.33° C | 79% | 1023.2 hPa | 0 mm | - | 54 W/m² | - |
| 1778116994 | 13.33° C | 79% | 1023.2 hPa | 0 mm | - | 52 W/m² | - |
| 1778116692 | 13.33° C | 78% | 1023.2 hPa | 0 mm | - | 61 W/m² | - |
| 1778116388 | 13.89° C | 78% | 1023.5 hPa | 0 mm | - | 62 W/m² | - |
| 1778116088 | 13.89° C | 77% | 1023.1 hPa | 0 mm | - | 66 W/m² | - |
| 1778115784 | 13.89° C | 77% | 1023.3 hPa | 0 mm | - | 65 W/m² | - |
| 1778115482 | 13.89° C | 76% | 1023.2 hPa | 0 mm | - | 74 W/m² | - |
| 1778115178 | 13.89° C | 76% | 1023.6 hPa | 0 mm | - | 86 W/m² | - |
| 1778114874 | 13.89° C | 75% | 1023.5 hPa | 0 mm | - | 98 W/m² | - |
| 1778114572 | 13.89° C | 75% | 1023.4 hPa | 0 mm | - | 100 W/m² | - |
| 1778114268 | 13.89° C | 75% | 1023.4 hPa | 0 mm | - | 111 W/m² | - |
| 1778113964 | 13.89° C | 75% | 1023.4 hPa | 0 mm | - | 126 W/m² | - |
| 1778113660 | 13.89° C | 75% | 1023.4 hPa | 0 mm | - | 114 W/m² | - |
| 1778113356 | 13.89° C | 76% | 1023.6 hPa | 0 mm | - | 86 W/m² | - |
| 1778113053 | 13.89° C | 76% | 1023.3 hPa | 0 mm | - | 97 W/m² | - |
| 1778112751 | 13.89° C | 76% | 1023.3 hPa | 0 mm | - | 105 W/m² | - |
| 1778112447 | 13.89° C | 76% | 1023.5 hPa | 0 mm | - | 115 W/m² | - |
* Rain latest hour (hover to see other rain measurements)
** Current wind speed in m/s (hover to see current wind gust speed)